Preview of NWS' New Version of Forecast
This preview is not operational and should not be used for support decisions.

Regional Weather Roundup (RWR)

Issued by National Weather Service (NWS)

                            
000
ASCA42 TJSJ 181310
RWRPR 
PUERTO RICO/U.S. VIRGIN ISLANDS HOURLY WEATHER ROUNDUP
NATIONAL WEATHER SERVICE SAN JUAN PR
900 AM AST THU APR 18 2019

PRZ001>002-007>008-010-181400-
PUERTO RICO
  
CITY           SKY/WX    TMP DP  RH WIND       PRES   REMARKS
SAN JUAN LMM   MOSUNNY   81  72  74 E13       30.05R                  
AGUADILLA      MOSUNNY   81  66  61 SE13G20   30.06R                  
CEIBA          PTSUNNY   84  70  61 MISG      30.06R                  
$$

VIZ001>002-181400-
U.S. VIRGIN ISLANDS
  
CITY           SKY/WX    TMP DP  RH WIND       PRES   REMARKS
CHARLOTTE AMA  MOSUNNY   84  66  54 E15       30.04R                  
CHRISTIANSTED  SUNNY     84  66  54 E16G25    30.05R                  
$$

HOURLY WEATHER ROUNDUP FOR THE NEWS MEDIA
  
CITY           SKY/WX    TMP DP  RH WIND       PRES   REMARKS
ORLANDO        FAIR      74  62  66 SE10      30.02S                  
NEW YORK       CLOUDY    51  43  74 E18G25    30.15F                  
NEWARK         LGT RAIN  54  41  61 SE7G17    30.14F                  
CHICAGO        CLOUDY    53  49  86 NW8       29.55F                  
HARTFORD       CLOUDY    45  38  76 SE12      30.26F                  
BOSTON         CLOUDY    47  34  60 S9        30.26F                  
DALLAS         CLOUDY    64  59  83 NE3       29.73R                  
PHILADELPHIA   CLOUDY    59  51  75 E8        30.07F                  
LOS ANGELES    MOCLDY    56  53  90 CALM      30.09S                  
WASHINGTON DC  CLOUDY    56  51  84 CALM      30.02F